Weather History for West Yellowstone, MT

Change the Weather History Date:

Thursday, November 15, 2012

  Actual Average Record
Temperature  
Mean Temperature 24 °F -  
Max Temperature 32 °F 33 °F 37 °F (2010)
Min Temperature 15 °F 10 °F 14 °F (2010)
Degree Days  
Heating Degree Days 42    
Moisture  
Dew Point -    
Average Humidity    
Maximum Humidity    
Minimum Humidity    
Precipitation  
Precipitation 0.00 in - - ()
Sea Level Pressure  
Sea Level Pressure 30.27 in    
Wind  
Wind Speed 2 mph (SSW)    
Max Wind Speed 12 mph    
Max Gust Speed 18 mph    
Visibility 10 miles    
Events      
Averages and records for this station are not official NWS values.
T = Trace of Precipitation, MM = Missing Value Source: NWS Daily Summary

Daily Weather History Graph

Daily Weather History Graph

Search for Another Location

Airport:

Trip Planner

Search our weather history database for the weather conditions in past years. The results will help you decide how hot, cold, wet, or windy it might be!

Date:

Astronomy

Nov. 15, 2012 Rise Set
Actual Time 7:22 AM MST 4:55 PM MST
Civil Twilight 6:50 AM MST 5:27 PM MST
Nautical Twilight 6:14 AM MST 6:02 PM MST
Astronomical Twilight 5:40 AM MST 6:37 PM MST
Moon 9:24 AM MST (11/15) 6:48 PM MST (11/15)
Length of Visible Light 10h 37m
Length of Day
9h 33m
Waxing Crescent, 5% of the Moon is Illuminated
Nov 15
Waxing Crescent
Nov 20
First Quarter
Nov 28
Full
Dec 6
Last Quarter
Dec 13
New

Hourly Weather History & Observations

Time (MST) Temp. Windchill Dew Point Humidity Pressure Visibility Wind Dir Wind Speed Gust Speed Precip Events Conditions
12:10 AM 23.0 °F 18.4 °F - N/A% 30.28 in 10.0 mi South 3.5 mph - N/A   Mostly Cloudy
12:30 AM 23.0 °F - - N/A% 30.29 in 10.0 mi Calm Calm - N/A   Overcast
12:50 AM 21.2 °F - - N/A% 30.29 in 10.0 mi Calm Calm - N/A   Overcast
1:10 AM 21.2 °F - - N/A% 30.29 in 10.0 mi Calm Calm - N/A   Overcast
1:30 AM 24.8 °F 20.5 °F - N/A% 30.29 in 10.0 mi WSW 3.5 mph - N/A   Overcast
1:50 AM 24.8 °F - - N/A% 30.29 in 10.0 mi Calm Calm - N/A   Overcast
2:10 AM 24.8 °F - - N/A% 30.29 in 10.0 mi Calm Calm - N/A   Overcast
2:30 AM 24.8 °F - - N/A% 30.30 in 10.0 mi Calm Calm - N/A   Overcast
2:50 AM 24.8 °F - - N/A% 30.30 in 10.0 mi Calm Calm - N/A   Overcast
3:10 AM 24.8 °F - - N/A% 30.30 in 10.0 mi Calm Calm - N/A   Overcast
3:30 AM 24.8 °F - - N/A% 30.30 in 10.0 mi Calm Calm - N/A   Overcast
3:50 AM 24.8 °F - - N/A% 30.30 in 10.0 mi Calm Calm - N/A   Overcast
4:10 AM 24.8 °F - - N/A% 30.30 in 10.0 mi Calm Calm - N/A   Overcast
4:30 AM 24.8 °F - - N/A% 30.29 in 10.0 mi Calm Calm - N/A   Overcast
5:10 AM 24.8 °F - - N/A% 30.30 in 10.0 mi Calm Calm - N/A   Overcast
5:30 AM 23.0 °F - - N/A% 30.30 in 10.0 mi Calm Calm - N/A   Overcast
5:50 AM 23.0 °F - - N/A% 30.30 in 10.0 mi Calm Calm - N/A   Overcast
6:10 AM 23.0 °F - - N/A% 30.30 in 10.0 mi Calm Calm - N/A   Overcast
6:30 AM 23.0 °F - - N/A% 30.30 in 10.0 mi Calm Calm - N/A   Overcast
6:50 AM 23.0 °F - - N/A% 30.30 in 10.0 mi Calm Calm - N/A   Overcast
7:10 AM 23.0 °F - - N/A% 30.31 in 10.0 mi Calm Calm - N/A   Overcast
7:30 AM 23.0 °F - - N/A% 30.31 in 10.0 mi Calm Calm - N/A   Overcast
7:50 AM 23.0 °F - - N/A% 30.31 in 10.0 mi Calm Calm - N/A   Overcast
8:10 AM 23.0 °F - - N/A% 30.31 in 10.0 mi Calm Calm - N/A   Overcast
8:30 AM 24.8 °F - - N/A% 30.32 in 10.0 mi Calm Calm - N/A   Overcast
8:50 AM 24.8 °F - - N/A% 30.32 in 10.0 mi Calm Calm - N/A   Overcast
9:10 AM 24.8 °F - - N/A% 30.32 in 10.0 mi Calm Calm - N/A   Overcast
9:30 AM 26.6 °F - - N/A% 30.33 in 10.0 mi Calm Calm - N/A   Overcast
9:50 AM 26.6 °F - - N/A% 30.33 in 10.0 mi Calm Calm - N/A   Overcast
10:10 AM 26.6 °F - - N/A% 30.33 in 10.0 mi Calm Calm - N/A   Overcast
10:30 AM 28.4 °F 24.6 °F - N/A% 30.32 in 10.0 mi SSW 3.5 mph - N/A   Overcast
10:50 AM 30.2 °F 23.4 °F - N/A% 30.32 in 10.0 mi WSW 6.9 mph - N/A   Overcast
11:10 AM 32.0 °F 24.8 °F - N/A% 30.31 in 10.0 mi WSW 8.1 mph - N/A   Overcast
11:30 AM 32.0 °F 23.6 °F - N/A% 30.30 in 10.0 mi SW 10.4 mph - N/A   Overcast
11:50 AM 32.0 °F 24.8 °F - N/A% 30.29 in 10.0 mi SW 8.1 mph - N/A   Overcast
12:10 PM 32.0 °F 25.6 °F - N/A% 30.29 in 10.0 mi SW 6.9 mph - N/A   Mostly Cloudy
12:30 PM 32.0 °F 25.6 °F - N/A% 30.28 in 10.0 mi SW 6.9 mph - N/A   Mostly Cloudy
12:50 PM 32.0 °F 25.6 °F - N/A% 30.27 in 10.0 mi SSW 6.9 mph - N/A   Mostly Cloudy
1:10 PM 32.0 °F 23.6 °F - N/A% 30.26 in 10.0 mi South 10.4 mph 18.4 mph N/A   Mostly Cloudy
1:30 PM 32.0 °F 25.6 °F - N/A% 30.26 in 10.0 mi SW 6.9 mph - N/A   Mostly Cloudy
1:50 PM 32.0 °F 24.8 °F - N/A% 30.25 in 10.0 mi SSW 8.1 mph - N/A   Mostly Cloudy
2:10 PM 32.0 °F 23.0 °F - N/A% 30.25 in 10.0 mi SSW 11.5 mph - N/A   Scattered Clouds
2:30 PM 32.0 °F 28.7 °F - N/A% 30.25 in 10.0 mi South 3.5 mph - N/A   Partly Cloudy
2:50 PM 32.0 °F 23.6 °F - N/A% 30.25 in 10.0 mi SSW 10.4 mph - N/A   Scattered Clouds
3:10 PM 32.0 °F 23.6 °F - N/A% 30.25 in 10.0 mi SW 10.4 mph 17.3 mph N/A   Mostly Cloudy
3:30 PM 32.0 °F 23.6 °F - N/A% 30.25 in 10.0 mi SSW 10.4 mph 16.1 mph N/A   Scattered Clouds
3:50 PM 32.0 °F 23.6 °F - N/A% 30.25 in 10.0 mi SSW 10.4 mph - N/A   Partly Cloudy
4:10 PM 32.0 °F 28.7 °F - N/A% 30.25 in 10.0 mi SSW 3.5 mph - N/A   Clear
4:30 PM 32.0 °F - - N/A% 30.25 in 10.0 mi Calm Calm - N/A   Clear
4:50 PM 30.2 °F - - N/A% 30.25 in 10.0 mi Calm Calm - N/A   Partly Cloudy
5:10 PM 26.6 °F - - N/A% 30.25 in 10.0 mi Calm Calm - N/A   Scattered Clouds
5:30 PM 28.4 °F - - N/A% 30.25 in 10.0 mi Calm Calm - N/A   Overcast
5:50 PM 30.2 °F - - N/A% 30.25 in 10.0 mi Calm Calm - N/A   Overcast
6:10 PM 28.4 °F 24.6 °F - N/A% 30.24 in 10.0 mi SSW 3.5 mph - N/A   Overcast
6:30 PM 28.4 °F - - N/A% 30.24 in 10.0 mi Calm Calm - N/A   Overcast
6:50 PM 28.4 °F - - N/A% 30.24 in 10.0 mi Calm Calm - N/A   Overcast
7:10 PM 28.4 °F - - N/A% 30.23 in 10.0 mi Calm Calm - N/A   Overcast
7:30 PM 28.4 °F - - N/A% 30.23 in 10.0 mi Calm Calm - N/A   Overcast
7:50 PM 26.6 °F - - N/A% 30.22 in 10.0 mi Calm Calm - N/A   Overcast
8:10 PM 26.6 °F - - N/A% 30.22 in 10.0 mi Calm Calm - N/A   Overcast
8:30 PM 26.6 °F - - N/A% 30.22 in 10.0 mi Calm Calm - N/A   Overcast
8:50 PM 26.6 °F - - N/A% 30.22 in 10.0 mi Calm Calm - N/A   Overcast
9:10 PM 24.8 °F - - N/A% 30.22 in 10.0 mi Calm Calm - N/A   Overcast
9:30 PM 24.8 °F - - N/A% 30.21 in 10.0 mi Calm Calm - N/A   Overcast
9:50 PM 23.0 °F - - N/A% 30.21 in 10.0 mi Calm Calm - N/A   Scattered Clouds
10:10 PM 23.0 °F - - N/A% 30.20 in 10.0 mi Calm Calm - N/A   Scattered Clouds
10:30 PM 19.4 °F - - N/A% 30.19 in 10.0 mi Calm Calm - N/A   Partly Cloudy
10:50 PM 19.4 °F - - N/A% 30.19 in 10.0 mi Calm Calm - N/A   Clear
11:10 PM 17.6 °F - - N/A% 30.19 in 1.8 mi Calm Calm - N/A   Clear
11:30 PM 15.8 °F - - N/A% 30.19 in 10.0 mi Calm Calm - N/A   Clear
11:50 PM 15.8 °F - - N/A% 30.19 in 10.0 mi Calm Calm - N/A   Clear